Wind_Speed
11 11 12 12 12 12 12 12 12 12 12 11 10 10 9 8 8 7 6 6 5 4 3 3 3 3 5 7 8 10 12 14 16 18 20 21 23 24 26 27 28 30 31
10 10 11 11 12 12 11 12 12 12 12 11 10 10 9 8 7 7 6 6 5 5 4 3 3 3 4 5 7 9 10 12 14 16 18 19 21 22 24 26 27 29 30
10 10 10 11 11 11 11 11 12 12 12 11 10 10 9 9 8 7 6 6 6 5 5 4 4 4 4 4 6 8 9 11 12 14 16 17 19 21 22 23 25 26 28
11 10 10 10 10 11 11 11 11 12 12 11 11 10 9 9 8 8 7 6 6 6 6 5 5 5 5 5 6 8 9 11 12 14 15 17 18 20 21 23 23 24 26
12 11 10 10 10 10 11 11 11 12 12 12 12 11 10 9 9 8 8 8 7 7 7 6 6 7 7 7 8 9 10 11 12 13 15 17 18 20 21 22 24 25 26
13 13 12 11 10 10 10 11 11 11 12 12 12 12 11 10 10 9 9 9 8 8 8 8 8 8 8 9 9 10 11 12 13 14 15 17 18 19 21 22 23 24 26
15 14 13 12 11 11 11 10 11 11 12 12 12 12 12 11 10 10 10 9 9 9 9 9 9 9 10 10 11 11 12 13 14 15 16 17 18 19 20 21 22 23 25
17 16 15 14 13 12 12 11 11 11 12 12 12 12 12 11 11 10 10 10 10 10 10 11 11 11 11 12 12 13 14 14 15 16 17 18 19 19 20 21 22 23 25
19 18 17 16 15 14 13 13 12 12 12 12 12 12 12 12 12 11 11 11 11 11 12 12 12 13 13 14 14 14 15 16 17 18 18 19 20 20 21 22 23 24 25
22 21 20 19 18 16 15 14 14 13 12 12 12 12 12 12 12 12 12 12 13 13 13 14 14 15 15 16 16 16 17 17 18 19 19 20 21 21 22 23 24 25 26
24 23 22 21 20 19 18 17 16 15 14 14 13 13 13 13 13 14 14 14 14 15 15 16 16 17 17 18 18 18 19 19 20 20 21 21 22 22 23 24 25 26 26
27 26 25 24 23 22 21 20 19 18 17 16 16 15 14 14 15 15 15 16 16 17 17 18 18 19 19 19 20 20 20 21 21 22 22 23 23 24 24 25 26 26 27
29 29 28 27 26 25 24 23 22 21 20 19 18 17 17 16 17 17 17 18 18 19 19 20 20 21 21 21 21 21 22 22 23 23 24 24 25 25 26 26 26 27 27
32 31 31 30 29 28 27 25 24 24 23 22 21 20 19 19 19 19 19 20 21 21 21 22 22 22 23 23 23 23 23 24 24 25 25 26 26 27 27 27 27 28 28
34 34 33 33 32 31 30 28 27 26 26 25 24 23 22 22 21 21 22 22 22 23 23 23 24 24 24 24 25 25 25 26 26 26 27 27 28 28 28 29 29 29 30
37 36 35 35 34 33 32 31 30 29 28 28 27 26 25 25 24 24 24 24 24 24 24 24 25 25 25 26 26 26 27 27 28 28 28 29 29 29 30 30 31 31 31
39 38 38 37 36 36 35 34 33 32 31 30 30 29 28 27 27 26 26 26 26 26 26 26 26 27 27 27 28 28 28 29 29 30 30 31 31 31 32 32 33 33 34
41 41 40 39 38 38 37 36 35 34 33 32 32 31 30 29 29 28 28 28 28 28 28 28 29 29 29 30 30 30 30 31 31 32 32 33 33 34 34 35 35 36 36
43 42 42 41 40 39 38 38 37 36 35 34 33 33 32 31 31 30 30 30 30 30 30 30 31 31 31 32 32 32 33 33 33 34 34 35 35 36 37 37 38 39 39
45 44 43 43 42 41 40 39 38 37 36 35 35 34 33 33 32 32 32 32 32 32 32 32 33 33 34 34 34 35 35 35 36 36 37 37 38 38 39 40 41 41 42
48 46 45 44 43 43 42 41 40 39 38 37 36 35 35 34 34 34 34 33 33 34 34 34 35 36 36 37 37 37 38 38 38 39 39 40 40 41 42 43 43 44 44
51 49 48 46 45 44 43 42 41 40 39 38 37 37 36 36 35 35 35 35 35 35 36 36 37 37 38 38 39 39 40 40 41 41 42 43 43 44 44 45 46 46 47
54 52 50 48 47 46 45 43 42 41 40 39 38 38 37 36 36 36 36 36 36 37 37 38 38 39 39 40 40 41 41 42 43 43 44 45 45 46 47 47 48 49 49
56 55 53 50 49 47 46 44 43 42 41 40 39 38 38 38 38 38 38 38 38 38 39 39 40 40 41 41 42 42 43 44 44 45 46 46 47 48 48 49 50 50 51
56 56 55 52 50 49 47 46 44 43 42 42 41 40 40 39 39 39 39 39 39 40 40 40 41 42 42 43 43 44 45 45 46 46 47 48 49 49 50 50 51 51 53
56 55 55 53 52 50 49 47 46 44 43 42 42 41 41 41 41 40 40 40 41 41 41 42 43 43 43 44 45 46 46 47 47 48 48 49 50 50 50 51 51 53 54
Wind_Direction
319 328 334 338 341 343 346 348 351 352 354 356 359 3 6 8 10 11 12 15 13 5 347 323 295 269 245 238 235 234 235 235 233 234 237 240 241 243 243 245 246 245 245
312 321 329 335 340 342 345 347 349 351 353 355 356 358 360 2 2 2 3 4 3 1 354 340 313 290 264 250 244 242 241 241 239 240 242 245 246 247 248 250 250 249 249
301 312 321 329 335 340 342 344 348 350 352 353 353 355 356 357 357 356 354 351 349 346 342 336 328 313 292 267 255 250 248 248 248 248 248 249 250 251 252 254 254 253 253
291 300 310 319 327 333 338 342 346 349 352 352 351 350 350 351 351 349 345 340 336 334 330 325 321 316 305 290 273 264 259 256 257 258 257 257 258 257 257 258 258 258 257
280 289 299 307 316 324 330 335 341 346 349 351 351 349 347 345 345 345 342 336 329 324 322 317 313 308 300 292 282 275 270 268 266 265 264 264 265 264 263 263 262 262 262
272 278 287 295 303 312 320 326 333 339 343 346 348 348 347 346 344 344 342 339 333 326 320 315 309 303 297 292 287 283 280 277 275 273 271 270 269 268 266 266 266 265 265
265 270 276 283 290 298 306 313 321 328 334 338 341 343 344 343 342 341 339 338 335 331 325 318 312 307 301 296 292 288 285 283 281 279 278 277 274 271 269 268 268 268 268
260 263 268 274 280 286 293 300 308 316 323 329 333 336 339 340 339 339 337 334 333 330 326 321 315 310 307 302 298 295 291 289 287 285 283 281 278 276 274 273 272 272 271
256 258 262 266 271 277 282 289 296 304 312 318 323 328 331 333 334 334 334 332 330 327 325 321 317 313 308 305 302 299 296 294 292 290 287 285 283 281 279 278 277 276 276
253 255 257 261 265 269 274 279 286 293 300 306 312 317 322 324 326 328 327 326 324 323 321 319 316 313 309 307 304 301 299 296 293 292 290 288 286 283 282 280 279 278 277
251 253 255 257 260 264 268 272 277 282 288 294 300 305 310 314 318 321 322 323 322 320 318 316 314 312 310 306 303 301 299 298 297 294 292 291 289 287 285 283 282 281 280
250 251 253 255 257 260 263 266 270 275 280 285 290 295 299 304 308 311 314 316 317 317 316 314 313 311 309 307 304 301 299 297 296 295 294 292 291 290 289 287 286 284 283
250 250 252 253 255 257 259 263 266 270 274 278 283 287 291 296 300 303 306 309 311 312 312 311 310 309 308 306 304 302 300 298 297 296 294 293 291 290 290 289 288 286 284
251 251 251 252 254 255 257 260 264 267 270 274 277 281 285 289 293 297 300 304 306 308 308 308 308 307 306 305 304 302 300 298 297 296 295 294 292 291 290 288 287 287 286
251 251 251 252 253 255 256 259 261 264 267 271 274 278 281 284 288 292 295 299 301 303 304 306 307 306 305 304 303 301 300 298 297 296 296 295 294 292 290 289 288 287 286
251 251 251 252 253 254 256 258 260 263 266 269 272 275 278 281 285 289 292 295 297 300 301 303 304 305 304 304 303 301 299 297 296 295 295 295 294 292 291 289 288 287 286
251 251 251 252 252 253 255 257 259 261 264 267 270 273 276 279 283 286 289 292 295 297 299 300 302 303 303 302 302 301 299 297 295 294 294 293 293 292 291 290 289 287 286
250 250 250 251 252 253 254 256 258 260 263 266 269 272 275 278 281 285 288 290 293 294 296 298 299 301 302 302 302 301 300 298 296 295 293 292 292 292 291 290 289 288 287
249 250 250 250 251 252 253 255 257 260 262 265 268 271 274 277 280 283 286 289 291 293 295 296 298 300 301 302 301 300 300 299 297 296 294 293 292 292 292 291 290 289 288
248 248 249 249 250 251 252 254 256 259 261 264 267 270 273 276 279 282 285 287 290 292 294 295 297 298 300 301 301 300 299 299 298 296 295 294 293 293 292 291 290 289 288
246 247 248 248 249 250 252 254 256 258 260 262 265 268 272 275 278 281 284 286 289 291 293 294 296 298 299 300 300 299 299 298 297 296 295 295 294 293 293 292 291 290 289
244 245 246 247 248 249 251 253 255 257 259 261 264 267 270 274 277 280 283 286 288 291 293 294 295 297 299 300 300 300 299 298 297 296 296 295 295 294 294 293 292 291 290
242 243 244 244 246 247 249 251 254 256 258 260 264 267 270 274 277 280 283 286 288 291 293 294 296 298 299 300 300 300 299 299 298 297 296 296 295 295 294 294 293 292 292
239 240 241 242 243 245 248 250 253 255 257 260 263 266 270 273 276 280 282 285 288 291 293 295 297 298 299 300 300 300 299 299 298 298 297 297 296 296 295 294 294 293 293
237 238 239 240 241 243 245 248 250 253 256 259 262 265 268 272 276 279 283 286 289 291 293 295 297 298 298 299 300 300 299 299 299 298 298 298 297 297 296 295 295 294 294
236 236 237 238 239 241 243 245 248 251 254 258 261 265 268 272 275 279 283 286 289 291 293 295 296 297 298 299 299 299 300 300 299 299 299 299 298 298 297 296 296 296 296
Height
5816 5814 5813 5811 5809 5807 5804 5802 5800 5798 5796 5793 5791 5789 5788 5786 5785 5784 5783 5782 5781 5781 5781 5780 5780 5780 5781 5782 5783 5785 5788 5790 5792 5795 5797 5799 5801 5803 5805 5807 5809 5811 5813
5814 5813 5812 5810 5808 5806 5804 5802 5800 5798 5796 5794 5792 5790 5788 5787 5785 5784 5783 5782 5782 5781 5780 5780 5780 5779 5780 5780 5782 5783 5785 5787 5789 5790 5793 5794 5796 5797 5799 5801 5802 5804 5806
5812 5812 5810 5809 5807 5805 5804 5802 5800 5798 5796 5793 5792 5790 5788 5787 5785 5784 5783 5782 5781 5781 5780 5780 5779 5779 5779 5779 5780 5781 5782 5784 5785 5787 5788 5789 5791 5792 5793 5794 5795 5797 5798
5810 5810 5809 5808 5806 5805 5803 5801 5799 5797 5795 5793 5791 5790 5788 5787 5785 5784 5783 5782 5781 5780 5779 5779 5778 5778 5777 5777 5778 5779 5780 5781 5782 5783 5784 5785 5786 5786 5787 5788 5789 5790 5791
5807 5807 5806 5806 5805 5803 5802 5800 5799 5797 5795 5793 5791 5789 5787 5786 5784 5783 5782 5781 5780 5779 5778 5778 5777 5776 5776 5776 5776 5777 5777 5778 5778 5779 5780 5780 5780 5781 5782 5782 5783 5783 5784
5804 5804 5804 5803 5803 5802 5800 5799 5797 5796 5794 5792 5790 5788 5786 5785 5783 5782 5780 5779 5778 5778 5777 5776 5776 5775 5775 5774 5774 5774 5774 5774 5775 5775 5775 5775 5775 5775 5775 5776 5776 5777 5777
5800 5801 5801 5800 5800 5799 5798 5797 5796 5794 5793 5791 5789 5787 5785 5784 5782 5780 5779 5778 5777 5776 5775 5775 5774 5773 5772 5772 5771 5771 5771 5770 5770 5770 5770 5769 5769 5769 5769 5769 5769 5769 5770
5796 5796 5797 5797 5797 5796 5795 5795 5794 5792 5791 5789 5788 5786 5784 5782 5781 5779 5778 5776 5775 5774 5773 5772 5772 5771 5770 5769 5769 5768 5767 5766 5766 5765 5765 5764 5763 5763 5763 5763 5762 5762 5762
5791 5791 5792 5792 5793 5792 5792 5791 5791 5790 5789 5787 5786 5784 5782 5781 5779 5777 5776 5775 5773 5772 5771 5770 5769 5768 5767 5766 5765 5764 5763 5762 5761 5760 5759 5758 5758 5757 5757 5756 5756 5755 5755
5785 5786 5787 5787 5788 5788 5788 5788 5787 5786 5785 5784 5783 5782 5780 5779 5777 5775 5774 5772 5771 5770 5768 5767 5765 5764 5763 5761 5760 5759 5758 5757 5756 5755 5754 5753 5752 5751 5750 5750 5749 5748 5747
5778 5779 5780 5781 5782 5783 5783 5783 5783 5782 5782 5781 5780 5779 5777 5776 5774 5772 5771 5769 5768 5766 5765 5763 5761 5760 5758 5757 5755 5754 5753 5752 5750 5749 5748 5747 5746 5745 5744 5742 5741 5741 5740
5771 5772 5773 5774 5775 5776 5777 5777 5777 5777 5777 5776 5775 5775 5774 5772 5770 5769 5767 5766 5764 5762 5761 5759 5757 5755 5753 5752 5750 5748 5747 5746 5744 5743 5742 5740 5739 5738 5736 5735 5734 5733 5731
5763 5764 5766 5767 5768 5769 5770 5770 5771 5771 5771 5771 5770 5769 5769 5768 5766 5764 5763 5761 5759 5758 5756 5754 5752 5750 5748 5746 5744 5742 5741 5739 5738 5736 5735 5733 5732 5730 5729 5727 5726 5724 5723
5754 5755 5757 5759 5760 5761 5762 5763 5764 5764 5764 5764 5764 5763 5763 5762 5761 5759 5757 5756 5754 5752 5750 5748 5746 5744 5742 5740 5738 5736 5734 5733 5731 5729 5727 5726 5724 5722 5721 5719 5718 5716 5715
5744 5746 5748 5749 5751 5753 5754 5755 5756 5756 5757 5757 5757 5756 5756 5755 5754 5753 5751 5750 5748 5746 5744 5742 5740 5738 5735 5733 5731 5729 5727 5725 5723 5721 5720 5718 5716 5714 5712 5710 5709 5707 5706
5734 5736 5738 5740 5742 5743 5745 5746 5747 5748 5748 5749 5749 5749 5748 5748 5747 5746 5744 5743 5741 5739 5737 5735 5733 5731 5729 5726 5724 5722 5719 5717 5715 5713 5711 5709 5707 5705 5703 5701 5699 5698 5696
5722 5725 5727 5729 5731 5733 5735 5736 5737 5739 5739 5740 5740 5740 5740 5739 5739 5738 5736 5735 5733 5732 5730 5728 5726 5723 5721 5719 5716 5714 5711 5709 5707 5704 5702 5700 5698 5696 5693 5691 5689 5687 5685
5710 5712 5715 5717 5720 5722 5724 5726 5727 5729 5730 5730 5731 5731 5731 5731 5730 5729 5728 5727 5725 5723 5721 5719 5717 5715 5713 5710 5708 5705 5702 5700 5697 5695 5693 5690 5688 5685 5683 5681 5678 5676 5674
5697 5700 5702 5705 5708 5710 5713 5715 5717 5718 5719 5720 5721 5721 5721 5721 5720 5720 5719 5717 5716 5714 5712 5710 5708 5706 5704 5701 5698 5696 5693 5690 5687 5685 5682 5680 5677 5675 5672 5669 5666 5664 5661
5683 5686 5689 5692 5695 5698 5700 5703 5705 5707 5709 5710 5711 5711 5711 5711 5711 5710 5709 5708 5706 5705 5703 5701 5699 5696 5694 5691 5688 5685 5683 5680 5677 5674 5671 5668 5665 5663 5660 5657 5654 5651 5648
5668 5671 5675 5678 5682 5685 5688 5691 5693 5696 5697 5699 5700 5701 5701 5701 5701 5700 5699 5698 5696 5695 5693 5691 5688 5686 5683 5681 5678 5675 5672 5669 5666 5662 5659 5656 5653 5650 5647 5643 5640 5637 5633
5652 5656 5660 5665 5668 5672 5675 5678 5681 5683 5685 5687 5689 5689 5690 5690 5690 5689 5688 5687 5686 5684 5682 5680 5678 5675 5672 5670 5666 5663 5660 5657 5653 5650 5647 5643 5640 5636 5633 5629 5625 5622 5618
5635 5640 5645 5650 5654 5658 5661 5665 5668 5671 5673 5675 5677 5678 5678 5679 5679 5678 5677 5676 5675 5673 5671 5669 5666 5664 5661 5658 5655 5651 5648 5644 5641 5637 5633 5630 5626 5622 5618 5614 5610 5606 5602
5617 5622 5628 5634 5639 5643 5648 5652 5655 5658 5661 5663 5665 5666 5667 5667 5667 5667 5666 5665 5663 5662 5660 5657 5654 5652 5649 5646 5642 5638 5635 5631 5627 5623 5619 5616 5611 5607 5603 5599 5594 5590 5585
5598 5605 5611 5618 5624 5629 5634 5638 5641 5645 5648 5650 5652 5654 5655 5655 5655 5655 5654 5653 5652 5650 5648 5645 5642 5639 5636 5633 5629 5625 5622 5618 5613 5609 5605 5601 5596 5592 5587 5583 5578 5573 5568
5580 5587 5594 5601 5608 5614 5619 5623 5628 5631 5634 5637 5639 5641 5642 5643 5643 5643 5642 5641 5640 5638 5635 5633 5630 5627 5624 5620 5616 5612 5608 5604 5599 5595 5590 5586 5581 5576 5571 5567 5562 5556 5551